[[[{"header":{"parameterUnit":"kt","parameterCategory":2,"dx":1,"dy":1,"la1":30.253999710083008,"la2":30.299108505249023,"lo1":-89.0895004272461,"lo2":-89.04439544677734,"nx":28,"ny":28,"refTime":"2022-09-27T21:00:00:Z","depth":0,"parameterNumber":1,"parameterNumberName":"U-component_of_WINDS"},"data":[-5.5903,-5.6088,-5.6067,-5.6267,-5.6282,-5.6415,-5.6456,-5.6506,-5.654,-5.6694,-5.6779,-5.6775,-5.68,-5.6895,-5.6985,-5.6981,-5.7023,-5.7102,-5.7085,-5.6747,-5.6699,-5.6654,-5.6611,-5.711,-5.7111,-5.7441,-5.7444,-5.7446,-5.5654,-5.5671,-5.5771,-5.5854,-5.5939,-5.5849,-5.5907,-5.5984,-5.6105,-5.6148,-5.623,-5.6364,-5.6467,-5.6464,-5.6559,-5.6644,-5.6608,-5.6671,-5.6668,-5.6674,-5.631,-5.6265,-5.6698,-5.6698,-5.6698,-5.6698,-5.6698,-5.6698,-5.5196,-5.5307,-5.5346,-5.5454,-5.5489,-5.5545,-5.5647,-5.5641,-5.5737,-5.5836,-5.579,-5.5926,-5.5965,-5.6069,-5.6098,-5.6202,-5.6129,-5.6192,-5.6209,-5.6228,-5.6252,-5.5785,-5.6216,-5.6215,-5.6214,-5.6213,-5.6212,0,-5.4856,-5.4832,-5.4926,-5.5015,-5.5092,-5.5159,-5.5216,-5.5278,-5.5217,-5.53,-5.5417,-5.5481,-5.5606,-5.5714,-5.5798,-5.5815,-5.5734,-5.5721,-5.5766,-5.5794,-5.5808,-5.5807,-5.522,-5.5711,-5.5706,-5.5703,-5.5701,-5.5699,-5.4397,-5.4529,-5.4558,-5.4628,-5.4654,-5.4767,-5.4829,-5.4766,-5.4835,-5.4895,-5.4996,-5.5102,-5.5185,-5.5375,-5.5367,-5.5461,-5.5424,-5.5614,-5.5438,-5.5457,-5.5432,-5.5428,-5.5442,-5.5652,-5.5658,-5.5663,-5.5667,0,-5.4142,-5.4107,-5.4304,-5.4321,-5.4329,-5.447,-5.4483,-5.4591,-5.4573,-5.4719,-5.4749,-5.4723,-5.4839,-5.4799,-5.4923,-5.49,-5.5131,-5.5088,-5.5117,-5.5109,-5.5279,-5.5265,-5.5829,-5.5901,-5.5376,-5.5381,-5.5385,0,-5.374,-5.3914,-5.3854,-5.3971,-5.4161,-5.4094,-5.4285,-5.4289,-5.4322,-5.4436,-5.4335,-5.4445,-5.4377,-5.448,-5.4445,-5.4626,-5.4648,-5.4642,-5.4633,-5.4656,-5.4657,-5.4697,-5.4675,-5.4598,-5.4595,-5.4593,-5.459,0,-5.3349,-5.3519,-5.3706,-5.3741,-5.3777,-5.3866,-5.3885,-5.3922,-5.3984,-5.4057,-5.4097,-5.4187,-5.4238,-5.4309,-5.4265,-5.4147,-5.4483,-5.4312,-5.4478,-5.448,-5.4561,-5.4558,-5.506,-5.4587,-5.4586,-5.4585,-5.4584,0,-5.3022,-5.3098,-5.3374,-5.3402,-5.345,-5.3573,-5.3658,-5.3754,-5.38,-5.3786,-5.3844,-5.3774,-5.3926,-5.376,-5.3969,-5.3829,-5.3885,-5.3892,-5.3903,-5.3921,-5.3738,-5.4033,-5.451,-5.4562,-5.3927,-5.3922,-5.3917,0,-5.2585,-5.2854,-5.28,-5.3063,-5.3183,-5.3063,-5.3197,-5.3242,-5.3235,-5.3334,-5.3325,-5.344,-5.3307,-5.3338,-5.3446,-5.3443,-5.3625,-5.3416,-5.3565,-5.3571,-5.3562,-5.3999,-5.4084,-5.4408,-5.3846,-5.3853,-5.3859,0,-5.2244,-5.2288,-5.2339,-5.2376,-5.2424,-5.2524,-5.2677,-5.2776,-5.2846,-5.2906,-5.3035,-5.3192,-5.31,-5.3152,-5.3106,-5.3221,-5.3499,-5.3107,-5.3107,-5.3183,-5.3806,-5.3885,-5.394,-5.3442,-5.3451,-5.3458,-5.3803,0,-5.1766,-5.1896,-5.203,-5.2115,-5.2185,-5.2347,-5.2308,-5.2386,-5.2334,-5.2324,-5.2511,-5.2538,-5.2641,-5.269,-5.2642,-5.2916,-5.2865,-5.2766,-5.2607,-5.2892,-5.3005,-5.3051,-5.2441,-5.2436,-5.2432,-5.2429,0,0,-5.136,-5.1546,-5.1483,-5.1631,-5.1687,-5.1563,-5.174,-5.1779,-5.1864,-5.1905,-5.1814,-5.2043,-5.2071,-5.2303,-5.2388,-5.2428,-5.2475,-5.2378,-5.2755,-5.2792,-5.2826,-5.2947,-5.2996,-5.2421,-5.242,-5.2418,-5.2417,0,-5.1179,-5.1208,-5.1383,-5.1421,-5.1476,-5.1457,-5.1499,-5.1532,-5.1534,-5.1716,-5.1614,-5.1721,-5.1906,-5.195,-5.1996,-5.2346,-5.2266,-5.2379,-5.2583,-5.2714,-5.2757,-5.2794,-5.2922,-5.2969,-5.2407,-5.2407,-5.2408,0,-5.084,-5.0864,-5.0944,-5.1064,-5.11,-5.1225,-5.1047,-5.1187,-5.128,-5.1139,-5.1324,-5.1335,-5.1389,-5.1612,-5.1711,-5.1632,-5.2077,-5.1929,-5.1954,-5.1966,-5.2092,-5.2143,-5.2188,-5.1595,-5.1592,-5.159,0,0,-5.069,-5.081,-5.0817,-5.1023,-5.1052,-5.1027,-5.109,-5.1046,-5.1097,-5.1119,-5.1132,-5.1185,-5.1291,-5.1364,-5.1462,-5.1712,-5.172,-5.1831,-5.1869,-5.19,-5.193,-5.2064,-5.2114,-5.158,-5.158,-5.1579,0,0,-5.0618,-5.0636,-5.0575,-5.0809,-5.0861,-5.0883,-5.101,-5.0937,-5.1021,-5.0999,-5.0932,-5.0944,-5.1151,-5.1167,-5.1036,-5.1406,-5.1248,-5.1278,-5.1389,-5.1437,-5.1475,-5.147,-5.0861,0,0,0,0,0,-5.0416,-5.0632,-5.0577,-5.0611,-5.0764,-5.0913,-5.0932,-5.0882,-5.0771,-5.0873,-5.0872,-5.078,-5.1082,-5.0965,-5.1,-5.1148,-5.145,-5.1473,-5.1495,-5.1697,-5.1747,-5.179,0,0,0,0,0,0,-5.0428,-5.047,-5.0571,-5.0604,-5.0637,-5.0904,-5.0706,-5.0699,-5.0759,-5.0739,-5.0783,-5.0781,-5.0741,-5.0944,-5.0976,-5.1118,-5.085,-5.1459,-5.1479,-5.1496,-5.1714,-5.1755,-5.179,0,0,0,0,0,-5.0438,-5.0471,-5.073,-5.06,-5.063,-5.0614,-5.0698,-5.069,-5.0736,-5.0736,-5.0731,-5.0692,-5.0747,-5.077,-5.0963,-5.1105,-5.0828,-5.084,-5.1472,-5.1487,-5.1501,-5.1734,0,0,0,0,0,0,-5.0445,-5.0465,-5.0735,-5.0742,-5.0515,-5.0598,-5.061,-5.0683,-5.0727,-5.0726,-5.0641,-5.0625,-5.0753,-5.077,-5.0789,-5.1103,-5.0809,-5.0822,-5.0829,-5.1484,-5.1496,-5.1506,0,0,0,0,0,0,-5.0447,-5.0472,-5.0738,-5.0634,-5.0628,-5.0584,-5.0594,-5.075,-5.073,-5.063,-5.0618,-5.0633,-5.0725,-5.0772,-5.0785,-5.1031,-5.0795,-5.0807,-5.0815,-5.082,-5.1493,-5.1503,0,0,0,0,0,0,-5.0456,-5.0478,-5.0631,-5.0628,-5.0622,-5.0698,-5.0721,-5.0881,-5.064,-5.063,-5.0617,-5.0606,-5.073,-5.0742,-5.0784,-5.1024,-5.1029,-5.0796,-5.0804,-5.0809,-5.0813,0,0,0,0,0,0,0,-5.0464,-5.0332,-5.0693,-5.0622,-5.0617,-5.0807,-5.0809,-5.0811,-5.0637,-5.0628,-5.0619,-5.0611,-5.0728,-5.0741,-5.0754,-5.1019,0,0,-5.0795,-5.08,0,0,0,0,0,0,0,0,-5.0321,-5.0329,-5.0693,-5.0695,-5.0696,-5.0807,-5.0809,-5.0811,-5.0636,-5.0628,-5.0621,-5.0614,-5.0732,-5.0742,-5.0753,0,0,0,0,0,0,0,0,0,0,0,0,0,0,0,-5.0693,-5.0695,0,-5.0808,-5.0809,-5.081,-5.0635,-5.0629,-5.0623,-5.0617,-5.0735,-5.0743,-5.0752,0,0,0,0,0,0,0,0,0,0,0,0,0,0,0,0,0,0,0,0,0,0,0,0,0,0,0,0,0,0,0,0,0,0,0,0,0,0,0,0,0,0,0,0,0,0,0,0,0,0,0,0,0,0,0,0,0,0,0,0,0,0,0,0,0,0,0,0,0]}],[{"header":{"parameterUnit":"kt","parameterCategory":2,"dx":1,"dy":1,"la1":30.253999710083008,"la2":30.299108505249023,"lo1":-89.0895004272461,"lo2":-89.04439544677734,"nx":28,"ny":28,"refTime":"2022-09-27T21:00:00:Z","depth":0,"parameterNumber":2,"parameterNumberName":"V-component_of_WINDS"},"data":[-15.5216,-15.5518,-15.5507,-15.5843,-15.5888,-15.6115,-15.6191,-15.6286,-15.6357,-15.6621,-15.6768,-15.6781,-15.6842,-15.7011,-15.7166,-15.7167,-15.7235,-15.7351,-15.7332,-15.6826,-15.6755,-15.6687,-15.6618,-15.7366,-15.7367,-15.7859,-15.7864,-15.7867,-15.4846,-15.4896,-15.5071,-15.5232,-15.538,-15.526,-15.5375,-15.5506,-15.571,-15.5799,-15.5944,-15.6172,-15.6348,-15.6369,-15.6535,-15.667,-15.6621,-15.6715,-15.6706,-15.6717,-15.6175,-15.6102,-15.6752,-15.6752,-15.6752,-15.6752,-15.6752,-15.6752,-15.4168,-15.435,-15.4441,-15.463,-15.4706,-15.4812,-15.4981,-15.4995,-15.5161,-15.5338,-15.5284,-15.5512,-15.5595,-15.5785,-15.5843,-15.6016,-15.5907,-15.6005,-15.603,-15.6056,-15.6088,-15.5382,-15.6042,-15.604,-15.6038,-15.6037,-15.6036,0,-15.3668,-15.3646,-15.3813,-15.3977,-15.4113,-15.4237,-15.4347,-15.445,-15.439,-15.453,-15.473,-15.4842,-15.506,-15.5243,-15.5393,-15.5432,-15.5318,-15.5303,-15.537,-15.5403,-15.5412,-15.5412,-15.4531,-15.5284,-15.5278,-15.5273,-15.527,-15.5267,-15.2985,-15.3198,-15.3285,-15.3404,-15.3461,-15.3652,-15.3762,-15.3694,-15.3813,-15.3935,-15.4095,-15.4278,-15.4422,-15.4739,-15.4746,-15.4907,-15.4853,-15.5143,-15.4877,-15.4898,-15.486,-15.4849,-15.487,-15.5197,-15.5206,-15.5214,-15.5219,0,-15.2602,-15.2579,-15.2904,-15.2967,-15.2989,-15.3214,-15.3265,-15.344,-15.3432,-15.3671,-15.3723,-15.371,-15.3905,-15.3865,-15.4077,-15.405,-15.4413,-15.4355,-15.4384,-15.4371,-15.4628,-15.4605,-15.5465,-15.5574,-15.4795,-15.4803,-15.4809,0,-15.2011,-15.2292,-15.2241,-15.2431,-15.2739,-15.2663,-15.2969,-15.2993,-15.3065,-15.3252,-15.3117,-15.3295,-15.3215,-15.3387,-15.3347,-15.3635,-15.3674,-15.3671,-15.3658,-15.3686,-15.3687,-15.3747,-15.3712,-15.3616,-15.3612,-15.3608,-15.3604,0,-15.1415,-15.1716,-15.2023,-15.2087,-15.2182,-15.2326,-15.2371,-15.245,-15.2558,-15.2689,-15.2758,-15.2915,-15.3002,-15.3124,-15.3073,-15.2894,-15.3424,-15.3167,-15.3421,-15.3423,-15.3542,-15.3536,-15.4306,-15.3599,-15.3598,-15.3596,-15.3595,0,-15.0934,-15.1076,-15.1524,-15.1599,-15.168,-15.1881,-15.2034,-15.2196,-15.2289,-15.2278,-15.238,-15.2285,-15.2534,-15.2282,-15.2623,-15.2405,-15.2497,-15.2515,-15.2532,-15.2554,-15.2274,-15.2717,-15.3452,-15.3528,-15.2571,-15.2563,-15.2555,0,-15.026,-15.0706,-15.0646,-15.1072,-15.1273,-15.1109,-15.1329,-15.1416,-15.142,-15.1587,-15.1587,-15.1778,-15.1581,-15.1635,-15.1809,-15.1817,-15.21,-15.1777,-15.2015,-15.2025,-15.1999,-15.2675,-15.2796,-15.3295,-15.2445,-15.2457,-15.2465,0,-14.9734,-14.9849,-14.993,-15.0,-15.0106,-15.0272,-15.0525,-15.0699,-15.0814,-15.0925,-15.1134,-15.1398,-15.1261,-15.1351,-15.129,-15.1473,-15.1906,-15.13,-15.1301,-15.1412,-15.2386,-15.25,-15.2584,-15.1823,-15.1836,-15.1847,-15.2378,0,-14.9016,-14.9236,-14.9452,-14.9612,-14.9734,-14.9998,-14.996,-15.0092,-15.0022,-15.002,-15.0325,-15.0384,-15.0557,-15.064,-15.0573,-15.1005,-15.0927,-15.0778,-15.0531,-15.0974,-15.1148,-15.1219,-15.0275,-15.0268,-15.0261,-15.0256,0,0,-14.8377,-14.8691,-14.8617,-14.8862,-14.8961,-14.8788,-14.9073,-14.9147,-14.9303,-14.9374,-14.9235,-14.9619,-14.9673,-15.0047,-15.0182,-15.0251,-15.0325,-15.0172,-15.0763,-15.082,-15.0872,-15.1059,-15.1133,-15.0245,-15.0242,-15.024,-15.0238,0,-14.8108,-14.8174,-14.8459,-14.8534,-14.8642,-14.8626,-14.8695,-14.877,-14.8782,-14.9082,-14.8932,-14.9109,-14.9418,-14.9495,-14.9574,-15.0125,-15.0001,-15.018,-15.0492,-15.07,-15.0766,-15.0823,-15.102,-15.1092,-15.0223,-15.0224,-15.0224,0,-14.7585,-14.7643,-14.7777,-14.7994,-14.8063,-14.8272,-14.8005,-14.8237,-14.839,-14.8185,-14.8485,-14.8512,-14.861,-14.897,-14.9129,-14.9007,-14.971,-14.948,-14.9519,-14.9536,-14.9736,-14.9814,-14.9884,-14.8965,-14.896,-14.8957,0,0,-14.7357,-14.7561,-14.7601,-14.7934,-14.7987,-14.7969,-14.8075,-14.8017,-14.8112,-14.8151,-14.8184,-14.8279,-14.8456,-14.8575,-14.8739,-14.9139,-14.9153,-14.9327,-14.9386,-14.9435,-14.9479,-14.9692,-14.9769,-14.8941,-14.894,-14.894,0,0,-14.7247,-14.7308,-14.7222,-14.7604,-14.7702,-14.776,-14.7964,-14.7858,-14.8003,-14.7968,-14.7877,-14.7898,-14.8233,-14.8265,-14.8058,-14.865,-14.8406,-14.8455,-14.8618,-14.8692,-14.8751,-14.8737,-14.779,0,0,0,0,0,-14.6953,-14.73,-14.7222,-14.728,-14.7553,-14.7805,-14.7838,-14.7774,-14.7603,-14.7765,-14.7775,-14.7636,-14.8134,-14.7949,-14.8006,-14.8238,-14.8736,-14.8773,-14.8807,-14.9111,-14.9189,-14.9255,0,0,0,0,0,0,-14.6976,-14.7048,-14.7212,-14.7287,-14.7347,-14.7791,-14.7488,-14.7479,-14.7584,-14.7553,-14.7638,-14.7638,-14.7585,-14.7915,-14.7968,-14.819,-14.7772,-14.8751,-14.8781,-14.8809,-14.9138,-14.9202,-14.9256,0,0,0,0,0,-14.6993,-14.7051,-14.7507,-14.7281,-14.7334,-14.7331,-14.7474,-14.7465,-14.7544,-14.7561,-14.7556,-14.7486,-14.7593,-14.7633,-14.7946,-14.8167,-14.7735,-14.7755,-14.8771,-14.8795,-14.8817,-14.9169,0,0,0,0,0,0,-14.7006,-14.7043,-14.7515,-14.7529,-14.7146,-14.7304,-14.7327,-14.7453,-14.7543,-14.7543,-14.7402,-14.7377,-14.7603,-14.7632,-14.7663,-14.8164,-14.7705,-14.7725,-14.7738,-14.8789,-14.8808,-14.8825,0,0,0,0,0,0,-14.7011,-14.7056,-14.7522,-14.7355,-14.7349,-14.7281,-14.7301,-14.7556,-14.7546,-14.7378,-14.736,-14.739,-14.7554,-14.7634,-14.7657,-14.8058,-14.7682,-14.7701,-14.7714,-14.7723,-14.8805,-14.882,0,0,0,0,0,0,-14.7028,-14.7067,-14.7351,-14.7347,-14.734,-14.7485,-14.7504,-14.7786,-14.7407,-14.7377,-14.7371,-14.7355,-14.756,-14.7582,-14.7654,-14.8046,-14.8055,-14.7682,-14.7695,-14.7705,-14.7711,0,0,0,0,0,0,0,-14.7043,-14.6804,-14.7437,-14.734,-14.7333,-14.7653,-14.7657,-14.766,-14.7404,-14.7389,-14.7375,-14.7362,-14.7571,-14.7592,-14.7614,-14.8036,0,0,-14.768,-14.769,0,0,0,0,0,0,0,0,-14.6786,-14.68,-14.7437,-14.744,-14.7443,-14.7654,-14.7656,-14.7659,-14.7401,-14.739,-14.7378,-14.7367,-14.7577,-14.7594,-14.7611,0,0,0,0,0,0,0,0,0,0,0,0,0,0,0,-14.7437,-14.744,0,-14.7654,-14.7656,-14.7659,-14.74,-14.739,-14.738,-14.7371,-14.7582,-14.7596,-14.761,0,0,0,0,0,0,0,0,0,0,0,0,0,0,0,0,0,0,0,0,0,0,0,0,0,0,0,0,0,0,0,0,0,0,0,0,0,0,0,0,0,0,0,0,0,0,0,0,0,0,0,0,0,0,0,0,0,0,0,0,0,0,0,0,0,0,0,0,0]}]]]